Durango, Mexico

5:51 PM CST on March 30, 2017 (GMT -0600)
Durango

Weather History for MMDO - February, 2013

Change the Weather History Date:

Tuesday, February 12, 2013

  Actual Average Record
Temperature  
Mean Temperature 58 °F -  
Max Temperature 75 °F 73 °F 86 °F (2017)
Min Temperature 41 °F 38 °F 30 °F (2011)
Degree Days  
Heating Degree Days 7    
Growing Degree Days 8 (Base 50)    
Moisture  
Dew Point 26 °F    
Average Humidity 33    
Maximum Humidity 87    
Minimum Humidity 8    
Precipitation  
Precipitation 0.00 in - - ()
Sea Level Pressure  
Sea Level Pressure 30.02 in    
Wind  
Wind Speed 7 mph ()    
Max Wind Speed 26 mph    
Max Gust Speed -    
Visibility 11.5 miles    
Events      
Averages and records for this station are not official NWS values.
T = Trace of Precipitation, MM = Missing Value Source: Averaged Metar Reports

Daily Weather History Graph

Daily Weather History Graph

Search for Another Location

Airport or City:

Trip Planner

Search our weather history database for the weather conditions in past years. The results will help you decide how hot, cold, wet, or windy it might be!

Date:

Astronomy

Feb. 12, 2013 Rise Set
Actual Time 7:33 AM CST 6:51 PM CST
Civil Twilight 7:10 AM CST 7:14 PM CST
Nautical Twilight 6:43 AM CST 7:41 PM CST
Astronomical Twilight 6:16 AM CST 8:08 PM CST
Moon 8:55 AM CST (2/12) 9:27 PM CST (2/12)
Length of Visible Light 12h 04m
Length of Day
11h 18m
Waxing Crescent, 7% of the Moon is Illuminated
Feb 12
Waxing Crescent
Feb 17
First Quarter
Feb 25
Full
Mar 4
Last Quarter
Mar 11
New

Hourly Weather History & Observations

Time (CST) Temp. Windchill Dew Point Humidity Pressure Visibility Wind Dir Wind Speed Gust Speed Precip Events Conditions
5:55 AM 44 °F - 33 °F 54% 29.94 in 6 mi Calm Calm - -  
5:59 AM 35.6 °F - 32.0 °F 87% 29.98 in 10.0 mi Calm Calm - N/A   Clear
6:42 AM 35.6 °F 31.7 °F 30.2 °F 81% 30.19 in 10.0 mi NNE 4.6 mph - N/A   Clear
7:44 AM 33.8 °F 29.6 °F 28.4 °F 81% 30.21 in 12.0 mi SE 4.6 mph - N/A   Partly Cloudy
8:46 AM 46.4 °F - 37.4 °F 71% 30.06 in 14.0 mi Calm Calm - N/A   Partly Cloudy
8:50 AM 48 °F - 36 °F 53% 30.05 in 31 mi Calm Calm - -   Scattered Clouds
9:43 AM 57.2 °F - 35.6 °F 44% 30.22 in 14.0 mi East 3.5 mph - N/A   Clear
10:45 AM 60.8 °F - 30.2 °F 31% 30.22 in 14.0 mi South 6.9 mph - N/A   Scattered Clouds
11:46 AM 69.8 °F - 14.0 °F 12% 30.01 in 14.0 mi SW 16.1 mph - N/A   Scattered Clouds
11:55 AM 67 °F - 24 °F 10% 30.03 in 31 mi SSW 4.5 mph - -   Partly Cloudy
12:42 PM 69.8 °F - 12.2 °F 11% 30.17 in 14.0 mi WSW 26.5 mph - N/A   Partly Cloudy
1:44 PM 71.6 °F - 14.0 °F 11% 30.14 in 14.0 mi SW 26.5 mph - N/A   Scattered Clouds
2:47 PM 71.6 °F - 19.4 °F 14% 29.84 in 14.0 mi SW 21.9 mph - N/A   Partly Cloudy
2:55 PM 72 °F - 24 °F 8% 29.88 in 31 mi WSW 11.2 mph - -   Scattered Clouds
3:45 PM 71.6 °F - 19.4 °F 14% 30.09 in 14.0 mi WSW 19.6 mph - N/A   Scattered Clouds
4:44 PM 69.8 °F - 23.0 °F 17% 30.08 in 14.0 mi SW 21.9 mph - N/A   Scattered Clouds
5:49 PM 68.0 °F - 23.0 °F 18% 29.91 in 14.0 mi SW 23.0 mph - N/A   Clear
5:55 PM 68 °F - 30 °F 14% 29.79 in 31 mi WSW 11.2 mph - -   Partly Cloudy
6:42 PM 62.6 °F - 24.8 °F 24% 30.11 in 14.0 mi SSW 17.3 mph - N/A   Clear
7:43 PM 60.8 °F - 26.6 °F 27% 30.10 in 10.0 mi South 16.1 mph - N/A   Clear
8:43 PM 59.0 °F - 26.6 °F 29% 29.89 in 8.0 mi SW 9.2 mph - N/A   Clear
8:55 PM 60 °F - 34 °F 25% 29.73 in 6 mi SW 6.7 mph - -  
9:41 PM 57.2 °F - 23.0 °F 27% 30.11 in 8.0 mi SW 8.1 mph - N/A   Clear
11:55 PM 58 °F - 28 °F 20% 29.74 in 6 mi SW 2.2 mph - -